Location: Newark
(5.8900°S, 42.6378°W)
Time: 21:17:20
(UTC+00:00)

Vanguard 1 Rocket - Pass Details

Date: 21 October 2019
Orbit: 651 x 4226 km, 34.3° (Epoch: 18 November)

Event Time Altitude Azimuth Distance (km) Brightness Sun altitude
Rises 19:14:10 0° 319° (NW) 8,276 12.7 20.9°
Reaches altitude 10° 19:20:25 10° 326° (NW) 7,390 12.4 19.4°
Maximum altitude 19:44:48 47° 33° (NNE) 4,462 10.8 13.4°
Drops below altitude 10° 20:01:25 10° 101° (E) 5,330 10.8 9.4°
Sets 20:04:55 0° 107° (ESE) 5,937 11.0 8.5°
